#timestamp,LO_Frequency,Hit 
1499432415.1,286047003.1,N
1499432416.0,286047003.1,N
1499432435.8,286047006.0,Y
1499432455.6,286047002.7,N
1499432475.5,286047002.1,N
1499432495.3,286047002.8,N
1499432515.1,286047000.0,N
1499432535.9,286047001.5,N
1499432555.7,286047002.3,N
1499432575.6,286047002.7,N
1499432595.4,286047000.5,N
1499432615.2,286047002.5,N
1499432635.1,286047001.5,N
1499432636.0,286047001.5,N
1499432655.8,286047004.2,N
1499432675.6,286047004.3,N
1499432695.5,286047001.4,N
1499432715.3,286047004.3,N
1499432735.2,286047000.3,N
1499432755.9,286047000.9,N
1499432775.7,286047001.9,N
1499432795.6,286047001.5,N
1499432815.4,286047002.3,N
1499432835.2,286046999.8,N
1499432855.1,286047000.8,N
1499432856.0,286047000.8,N
1499432875.8,286047000.4,N
1499432895.7,286047002.3,N
1499432915.5,286047000.1,N
1499432935.3,286047000.1,N
1499432955.2,286047000.8,N
1499432975.9,286047000.5,N
1499432995.7,286046998.6,N
1499433015.6,286046998.2,N
1499433035.4,286046998.2,N
1499433055.2,286046999.3,N
1499433075.1,286047002.8,N
1499433076.0,286047002.8,N
1499433095.8,286047002.1,N
1499433115.7,286047001.7,N
1499433135.5,286047002.5,N
1499433155.3,286047001.8,N
1499433175.2,286047003.9,N
1499433195.0,286047001.8,N
1499433195.9,286047001.8,N
1499433215.7,286047003.5,N
1499433235.6,286047005.0,Y
1499433255.4,286047004.1,N
1499433275.3,286047003.8,N
1499433295.1,286047000.5,N
1499433296.0,286047000.5,N
1499433315.8,286047002.3,N
1499433335.7,286047003.9,N
1499433355.5,286047003.0,N
1499433375.3,286047002.3,N
1499433395.2,286047000.2,N
1499433415.0,286046999.8,N
1499433415.9,286046999.8,N
1499433435.8,286047002.8,N
1499433455.6,286047003.3,N
1499433475.4,286047003.7,N
1499433495.3,286047001.5,N
1499433515.1,286046999.8,N
1499433535.8,286047001.9,N
1499433555.7,286047002.7,N
1499433575.5,286047002.5,N
1499433595.4,286047000.1,N
1499433615.2,286046998.2,N
1499433635.0,286046998.6,N
1499433635.9,286046998.6,N
1499433655.8,286047001.2,N
1499433675.6,286047000.8,N
1499433695.4,286046998.1,N
1499433715.3,286046998.6,N
1499433735.1,286046998.7,N
1499433755.9,286047000.6,N
1499433775.7,286047002.8,N
1499433795.5,286047001.6,N
1499433815.4,286047000.0,N
1499433835.2,286047004.0,N
1499433855.0,286047000.2,N
1499433855.9,286047000.2,N
1499433875.8,286047000.6,N
1499433895.6,286047000.8,N
1499433915.4,286047000.7,N
1499433935.3,286046998.2,N
1499433955.1,286047000.6,N
1499433975.9,286046999.8,N
1499433995.7,286047000.5,N
1499434015.5,286047000.3,N
1499434035.4,286046999.9,N
1499434055.2,286046999.9,N
1499434075.0,286047001.1,N
1499434076.0,286047001.1,N
1499434095.8,286046999.9,N
1499434115.6,286047004.4,N
1499434135.5,286047003.5,N
1499434155.3,286047003.7,N
1499434175.1,286047001.8,N
1499434195.9,286047003.0,N
1499434215.7,286047005.8,Y
1499434235.5,286047002.5,N
1499434255.4,286047001.7,N
1499434275.2,286047002.0,N
1499434295.1,286047001.4,N
1499434296.0,286047001.4,N
1499434315.8,286046998.1,N
1499434335.6,286046998.3,N
1499434355.5,286047000.4,N
1499434375.3,286046998.1,N
1499434395.1,286047001.2,N
1499434415.9,286046998.4,N
1499434435.7,286047000.8,N
1499434455.6,286046998.1,N
1499434475.4,286046999.9,N
1499434495.2,286047000.3,N
1499434515.1,286047000.9,N
1499434516.0,286047000.9,N
1499434535.8,286046998.3,N
1499434555.6,286047002.8,N
1499434575.5,286047002.1,N
1499434595.3,286047002.5,N
1499434615.1,286046999.7,N
1499434635.9,286047002.3,N
1499434655.7,286047000.8,N
1499434675.6,286047001.0,N
1499434695.4,286046999.0,N
1499434715.2,286046999.6,N
1499434735.1,286046999.4,N
1499434736.0,286046999.4,N
1499434755.8,286046998.2,N
1499434775.6,286047001.2,N
1499434795.5,286046998.8,N
1499434815.3,286046998.3,N
1499434835.2,286046999.1,N
1499434855.9,286046998.4,N
1499434875.7,286046998.1,N
1499434895.6,286047000.9,N
1499434915.4,286047000.6,N
1499434935.3,286047000.1,N
1499434955.1,286047001.0,N
1499434956.0,286047001.0,N
1499434975.8,286046999.1,N
1499434995.7,286046998.6,N
1499435015.5,286046999.0,N
1499435035.3,286046998.3,N
1499435055.2,286046998.3,N
1499435075.0,286047001.2,N
1499435075.9,286047001.2,N
1499435095.8,286046998.3,N
1499435115.6,286047000.4,N
1499435135.4,286047001.1,N
1499435155.3,286046998.7,N
1499435175.1,286047000.5,N
1499435195.8,286046998.3,N
1499435215.7,286046998.7,N
1499435235.5,286046997.0,N
1499435255.4,286046999.4,N
1499435275.2,286046996.6,N
1499435295.0,286046998.6,N
1499435295.9,286046998.6,N
1499435315.8,286046998.8,N
1499435335.6,286046999.2,N
1499435355.4,286046997.4,N
1499435375.3,286046997.8,N
1499435395.1,286046997.6,N
1499435415.8,286046997.9,N
1499435435.7,286046995.9,N
1499435455.5,286046995.9,N
1499435475.4,286046995.4,N
1499435495.2,286046996.8,N
1499435515.0,286046996.6,N
1499435515.9,286046996.6,N
1499435535.8,286046997.5,N
1499435555.6,286046997.7,N
1499435575.4,286046997.2,N
1499435595.3,286046996.9,N
1499435615.1,286046995.4,N
1499435635.9,286046996.1,N
1499435655.7,286046997.5,N
1499435675.5,286046995.2,N
1499435695.4,286046993.7,Y
1499435715.2,286046997.8,N
1499435735.1,286046998.7,N
1499435736.0,286046998.7,N
1499435755.8,286046999.2,N
1499435775.6,286046997.4,N
1499435795.5,286046995.4,N
1499435815.3,286046996.1,N
1499435835.2,286046996.2,N
1499435855.9,286046996.1,N
1499435875.7,286046993.3,Y
1499435895.6,286046995.4,N
1499435915.4,286046995.0,N
1499435935.2,286046997.7,N
1499435955.1,286046999.1,N
1499435956.0,286046999.1,N
1499435975.8,286046996.8,N
1499435995.7,286046996.7,N
